Date,TemperatureHighF,TemperatureAvgF,TemperatureLowF,DewpointHighF,DewpointAvgF,DewpointLowF,HumidityHigh,HumidityAvg,HumidityLow,PressureMaxIn,PressureMinIn,WindSpeedMaxMPH,WindSpeedAvgMPH,GustSpeedMaxMPH,PrecipitationSumIn
2013-1-1,78,66,55,60,56,52,92,73,51,30.16,29.98,12,2,17,0.00
2013-1-2,81,69,58,66,61,56,91,77,55,30.01,29.92,9,2,12,0.00
2013-1-3,75,65,58,66,61,55,95,88,73,30.12,29.97,13,3,17,0.07
2013-1-4,59,57,54,57,55,52,95,94,92,30.21,30.08,13,4,15,0.21
2013-1-5,75,62,54,62,56,50,94,80,62,30.23,30.12,10,4,14,0.01
2013-1-6,80,68,60,67,62,58,94,83,65,30.15,29.99,9,3,17,0.09
2013-1-7,70,63,56,61,57,51,93,82,62,30.16,30.06,10,6,15,0.00
2013-1-8,84,71,63,70,66,60,94,83,59,30.17,30.06,8,3,9,0.00
2013-1-9,82,73,67,72,68,66,95,87,68,30.25,30.13,9,3,13,0.07
2013-1-10,83,72,66,70,66,62,96,80,53,30.25,30.16,10,4,15,0.01
2013-1-11,82,72,63,69,64,61,94,79,54,30.20,30.09,9,3,15,0.00
2013-1-12,85,72,63,69,63,61,94,77,46,30.14,30.02,8,3,10,0.00
2013-1-13,83,71,62,67,63,59,94,77,47,30.10,30.00,8,3,13,0.00
2013-1-14,83,71,62,68,63,60,94,79,54,30.13,30.05,10,3,12,0.00
2013-1-15,83,72,63,68,64,61,94,78,51,30.09,29.99,9,3,12,0.00
2013-1-16,85,72,63,66,62,58,93,72,44,30.04,29.94,8,2,9,0.00
2013-1-17,79,65,53,68,58,44,93,79,62,30.03,29.89,17,6,25,0.00
2013-1-18,66,54,41,58,46,34,90,75,68,30.21,30.03,15,6,21,0.04
2013-1-19,73,64,56,60,56,51,86,77,61,30.21,30.07,13,5,19,0.00
2013-1-20,73,64,59,62,58,53,94,82,66,30.11,29.99,10,4,14,0.01
2013-1-21,76,65,62,61,57,54,82,74,58,30.03,29.93,5,2,10,0.00
2013-1-22,63,58,49,54,44,36,78,59,42,30.21,29.99,13,4,17,0.00
2013-1-23,71,56,48,43,38,33,78,54,27,30.30,30.20,9,2,13,0.00
2013-1-24,75,60,46,52,46,41,84,63,39,30.25,30.14,9,2,13,0.00
2013-1-25,77,64,53,57,51,45,95,67,38,30.23,30.10,8,2,10,0.00
2013-1-26,78,64,51,57,52,46,92,68,43,30.20,30.09,6,2,10,0.00
2013-1-27,80,66,54,62,58,52,94,76,45,30.24,30.16,10,3,13,0.00
2013-1-28,77,70,63,64,62,60,90,78,60,30.27,30.17,10,4,14,0.00
2013-1-29,84,72,63,68,64,62,94,79,48,30.19,30.04,10,4,13,0.00
2013-1-30,84,74,65,66,64,61,92,72,50,30.06,29.81,18,7,23,0.00
2013-1-31,71,59,50,65,42,27,91,56,25,30.15,29.82,16,5,21,0.07